This demonstration page uses our WeatherBlox Daily Observations layout. Learn more.

Left ArrowRight Arrow

34.74481, -87.66753

Hourly Observations for February 6, 2021

Temp ( °F °C ) Dew Point ( °F °C ) Humidity (%) Winds ( mph kmh ) Pressure ( in mb ) Visibility ( mi km ) Precip ( " mm )
12:53 am 00:53 Clear 33 0.6 25 -3.9 72 72 Calm 30.01 1016 10 16 0.00 0.00
1:53 am 01:53 Clear 31 -0.6 25 -3.9 79 79 Calm 30.02 1017 10 16 0.00 0.00
2:53 am 02:53 Clear 31 -0.6 26 -3.3 82 82 Calm 30.04 1017 9 14 0.00 0.00
3:53 am 03:53 Partly Cloudy 30 -1.1 24 -4.4 79 79 Calm 30.05 1018 10 16 0.00 0.00
4:53 am 04:53 Clear 30 -1.1 24 -4.4 79 79 Calm 30.04 1017 10 16 0.00 0.00
5:53 am 05:53 Partly Cloudy 30 -1.1 24 -4.4 79 79 S 3 6 30.06 1018 10 16 0.00 0.00
6:53 am 06:53 Sunny 29 -1.7 23 -5 78 78 Calm 30.07 1018 10 16 0.00 0.00
7:53 am 07:53 Sunny 35 1.7 29 -1.7 78 78 E 3 6 30.07 1018 10 16 0.00 0.00
8:53 am 08:53 Cloudy 40 4.4 31 -0.6 70 70 NE 3 6 30.07 1018 10 16 0.00 0.00
9:53 am 09:53 Cloudy 44 6.7 31 -0.6 60 60 E 5 7 30.09 1019 10 16 0.00 0.00
10:53 am 10:53 Cloudy 47 8.3 33 0.6 59 59 NE 6 9 30.08 1019 10 16 0.00 0.00
11:53 am 11:53 Cloudy 51 10.6 32 0 48 48 ESE 5 7 30.06 1018 10 16 0.00 0.00
12:53 pm 12:53 Partly Cloudy 53 11.7 26 -3.3 35 35 ESE 10 17 30.00 1016 10 16 0.00 0.00
1:53 pm 13:53 Mostly Cloudy 54 12.2 26 -3.3 34 34 ESE 10 17 29.97 1015 10 16 0.00 0.00
2:53 pm 14:53 Mostly Cloudy 53 11.7 26 -3.3 35 35 ESE 10 17 29.95 1014 10 16 0.00 0.00
3:53 pm 15:53 Cloudy 51 10.6 27 -2.8 39 39 E 13 20 29.93 1014 10 16 0.00 0.00
4:53 pm 16:53 Cloudy 50 10 25 -3.9 38 38 ESE 12 19 29.90 1013 10 16 0.00 0.00
5:53 pm 17:53 Cloudy with Light Rain 47 8.3 33 0.6 59 59 SE 17 28 29.91 1013 10 16 0.00 0.00
6:53 pm 18:53 Cloudy 44 6.7 33 0.6 65 65 ESE 16 26 29.86 1011 10 16 0.00 0.00
7:53 pm 19:53 Cloudy with Rain 42 5.6 35 1.7 76 76 SE 8 13 29.88 1012 4 6 0.08 2.03
8:01 pm 20:01 Cloudy with Rain 42 5.6 35 1.7 76 76 ESE 7 11 29.89 1012 5 8 0.02 0.51
8:23 pm 20:23 Cloudy with Heavy Rain 42 5.6 35 1.7 76 76 NNW 7 11 29.93 1013 3 5 0.10 2.54
8:53 pm 20:53 Cloudy with Rain 40 4.4 34 1.1 79 79 N 8 13 29.94 1014 4 6 0.19 4.83
9:04 pm 21:04 Cloudy with Heavy Rain 40 4.4 34 1.1 79 79 N 10 17 29.96 1015 3 5 0.04 1.02
9:13 pm 21:13 Cloudy with Rain 38 3.3 32 0 79 79 N 6 9 29.96 1015 3 5 0.08 2.03
9:43 pm 21:43 Cloudy with Light Rain 37 2.8 32 0 82 82 N 7 11 29.96 1015 5 8 0.12 3.05
9:53 pm 21:53 Cloudy with Light Rain 37 2.8 32 0 82 82 N 5 7 29.94 1014 6 10 0.12 3.05
10:22 pm 22:22 Cloudy with Light Rain 37 2.8 32 0 82 82 N 6 9 29.96 1015 5 8 0.02 0.51
10:53 pm 22:53 Cloudy with Light Rain 38 3.3 33 0.6 83 83 N 7 11 29.95 1014 4 6 0.03 0.76
11:53 pm 23:53 Cloudy with Light Rain 38 3.3 32 0 79 79 NE 9 15 29.95 1014 7 11 0.03 0.76

Powered by AerisWeather